Overview Statistics Trail Chart Weather Telemetry Raw packets
 

This is the latest recevied weather packets stored in our database for station/object KF0WJA. If no packets are shown the sender has not sent any weather packets the latest 10 day(s).

<< 68 69 70 71 72 73 74 >>
Time Temp. Humidity Pressure Rain* Wind** Luminosity Snow
1788184477 28.33° C 54% 1018.2 hPa 0 mm - 154 W/m² -
1788184172 27.78° C 55% 1018 hPa 0 mm - 143 W/m² -
1788183869 27.78° C 56% 1018.5 hPa 0 mm - 119 W/m² -
1788183569 27.22° C 58% 1018.2 hPa 0 mm - 63 W/m² -
1788183268 26.67° C 59% 1018.4 hPa 0 mm - 58 W/m² -
1788182964 26.67° C 60% 1018.4 hPa 0 mm - 49 W/m² -
1788182659 26.67° C 59% 1018.3 hPa 0 mm - 47 W/m² -
1788182359 26.67° C 60% 1018.3 hPa 0 mm - 44 W/m² -
1788182054 26.11° C 61% 1018.1 hPa 0 mm - 46 W/m² -
1788181750 25.56° C 62% 1018 hPa 0 mm - 46 W/m² -
1788181445 25° C 64% 1018.1 hPa 0 mm - 46 W/m² -
1788181144 25° C 66% 1018.3 hPa 0 mm - 46 W/m² -
1788180839 24.44° C 66% 1018.2 hPa 0 mm - 48 W/m² -
1788180534 24.44° C 67% 1018 hPa 0 mm - 44 W/m² -
1788180230 23.89° C 68% 1018.2 hPa 0 mm - 41 W/m² -
1788179925 23.89° C 68% 1018.5 hPa 0 mm - 36 W/m² -
1788179624 23.89° C 69% 1018.1 hPa 0 mm - 30 W/m² -
1788179319 23.33° C 69% 1018.1 hPa 0 mm - 26 W/m² -
1788179015 23.33° C 69% 1018.1 hPa 0 mm - 22 W/m² -
1788178714 23.33° C 70% 1018.3 hPa 0 mm - 18 W/m² -
1788178411 22.78° C 70% 1018.1 hPa 0 mm - 13 W/m² -
1788178106 22.78° C 70% 1018.2 hPa 0 mm - 10 W/m² -
1788177800 22.78° C 70% 1017.8 hPa 0 mm - 6 W/m² -
1788177495 22.78° C 70% 1018.2 hPa 0 mm - 3 W/m² -
1788177192 23.33° C 69% 1017.8 hPa 0 mm - 0 W/m² -

* Rain latest hour (hover to see other rain measurements)
** Current wind speed in m/s (hover to see current wind gust speed)